Regional Weather Roundup
Issued by NWS

Home | Current Version | Previous Version | Graphics & Text | Print | Product List | Glossary On
Versions: 1 2 3 4 5 6 7 8 9 10 11 12 13 14 15 16 17 18 19 20 21 22 23 24 25 26 27 28 29 30 31 32 33 34 35 36 37 38 39 40 41 42 43 44 45 46 47 48 49 50
000
ASUS43 KLMK 170510
RWRKY
KENTUCKY REGIONAL WEATHER ROUNDUP
NATIONAL WEATHER SERVICE LOUISVILLE KY
1200 AM EST TUE JAN 17 2017

NOTE "FAIR" INDICATES FEW OR NO CLOUDS BELOW 12,000 FEET
WITH NO SIGNIFICANT WEATHER AND/OR OBSTRUCTIONS TO VISIBILITY.

KYZ001>023-026-027-061>063-070>075-170600-
WESTERN AND SOUTH CENTRAL KENTUCKY

CITY           SKY/WX    TMP DP  RH WIND       PRES   REMARKS
PADUCAH        LGT RAIN  60  57  89 S6        29.93R
HENDERSON      CLOUDY    59  55  88 S14       29.94S
OWENSBORO      RAIN      58  56  93 S10       29.98F
HOPKINSVILLE   DRIZZLE   60  60 100 S13       29.98F
BOWLING GREEN  LGT RAIN  60  56  86 S15       30.03F
GLASGOW        LGT RAIN  59  54  82 S9        30.06R
$$

KYZ024-025-028>034-038-045-046-053-170600-
NORTH CENTRAL KENTUCKY

CITY           SKY/WX    TMP DP  RH WIND       PRES   REMARKS
LOUISVILLE/SDF LGT RAIN  56  53  90 CALM      30.03F FOG
LOUISVILLE/LOU RAIN      56  54  93 CALM      30.03F FOG
FORT KNOX      LGT RAIN  56  56  98 S14       30.00F
$$

KYZ035>037-039>044-047>052-055>060-089>105-170600-
NORTHEAST KENTUCKY

CITY           SKY/WX    TMP DP  RH WIND       PRES   REMARKS
LEXINGTON      CLOUDY    59  52  77 S10       30.06F
COVINGTON      LGT RAIN  54  53  97 S9        30.03F
FRANKFORT      LGT RAIN  59  52  77 S7        30.04S
$$

KYZ054-064>069-076>088-106>120-170600-
SOUTHEAST KENTUCKY

CITY           SKY/WX    TMP DP  RH WIND       PRES   REMARKS
JACKSON        CLOUDY    58  49  72 SW3       30.11F
LONDON         CLOUDY    59  51  75 S8        30.12F
SOMERSET       MOCLDY    59  52  77 S5        30.12S
MIDDLESBORO    MOCLDY    59  53  79 S8        30.16F
MONTICELLO     CLOUDY    62  53  72 SE8       30.11F
$$





USA.gov is the U.S. government's official web portal to all federal, state and local government web resources and services.